weather.gov     
National Weather Service

Terminal Aerodrome Forecast
NWS Homepage
This page is being discontinued on March 12, 2014.
The same data is available at this site. Please update your bookmarks.
Thank you, and we apologize for the inconvenience.
Please send an email to SR-SRH.Webmaster@noaa.gov with any concerns.


Current Version
Previous Version:    01  02  03  04  05  06  07  08  09  10  11  12  13  14  15  16  17  18  19  20  21  22  23  24  25  26  27  28  29  
[Printable]
437
FTUS44 KLZK 290800 AAA
TAFPBF
TAF AMD
KPBF 290829Z 2908/3006 19008KT P6SM BKN040 WS020/20040KT
     FM290900 20008KT P6SM SCT007 OVC015 WS020/22045KT
      TEMPO 2910/2914 BKN007
     FM291500 20012G20KT P6SM SCT015 BKN025 WS020/21040KT
     FM291800 21014G22KT P6SM SCT035 WS020/20035KT
     FM300100 19011KT P6SM SCT020 BKN035 WS020/21040KT=


U.S. Dept. of Commerce
NOAA National Weather Service
1325 East West Highway
Silver Spring, MD 20910
E-mail: w-nws.webmaster@noaa.gov
Page last modified: May 16, 2007
NATIONAL WEATHER SERVICE: for Safety, for Work, for Fun - FOR LIFE